Location: Putah Creek Observatory
(38.7021°N, 122.3865°W)
Time: 09:59:37
(UTC-07:00)

H-2A R/B - Pass Details

Date: 27 May 2018
Orbit: 734 x 836 km, 98.3° (Epoch: 16 October)

Event Time Altitude Azimuth Distance (km) Brightness Sun altitude
Exits shadow 21:38:23 18° 135° (SE) 1,781 3.2 -12.6°
Maximum altitude 21:41:45 44° 71° (ENE) 1,042 2.5 -13.1°
Drops below altitude 10° 21:46:32 10° 1° (N) 2,308 5.1 -13.7°
Sets 21:48:57 0° 355° (N) 3,255 6.1 -14.1°
